Wind_Speed
11 11 11 11 11 11 10 11 10 10 10 10 10 10 9 10 9 9 8 8 8 8 8 7 6 6 5 5 4 5 4 4 3 3 2 2 1 1 1 1 1 2 2
12 12 12 13 13 12 12 12 12 12 12 12 12 12 11 11 11 10 9 9 9 9 9 8 8 7 7 6 5 4 4 5 4 4 4 3 3 2 2 2 2 1 2
13 13 14 14 14 14 14 14 14 13 13 13 13 14 13 12 12 12 11 11 11 10 10 10 9 9 8 7 6 6 5 5 5 4 5 4 4 3 3 3 2 2 1
15 15 16 16 16 16 15 15 15 15 14 14 14 14 14 13 13 13 12 12 12 11 11 11 10 10 9 8 8 7 7 6 5 5 5 5 5 4 4 3 3 2 2
17 17 17 18 18 18 17 17 17 17 16 16 16 16 15 15 14 13 13 13 13 12 12 12 11 11 11 10 9 9 8 7 7 6 6 6 6 5 5 5 4 3 3
18 18 19 19 19 19 20 20 19 19 18 18 17 17 17 16 15 15 14 14 14 14 13 13 12 12 12 12 11 10 9 9 8 8 8 7 7 7 7 7 6 5 4
21 20 20 20 20 20 21 21 22 21 20 20 19 19 18 18 17 16 16 15 15 14 14 13 13 13 13 12 12 12 11 11 10 9 9 9 9 8 8 8 7 6 6
23 23 23 22 22 22 22 22 22 22 22 22 21 20 20 19 19 18 18 17 17 16 16 15 15 15 14 13 13 13 13 12 12 11 11 10 10 10 9 9 9 8 8
25 25 25 25 24 24 24 25 24 24 24 24 23 23 22 22 21 20 20 19 19 18 18 17 17 17 17 16 15 15 14 14 14 13 13 12 12 12 11 11 11 10 9
27 27 27 27 27 27 26 26 27 26 26 26 25 25 24 24 23 23 22 21 21 20 20 19 18 18 18 18 17 16 16 16 16 15 14 14 14 14 13 13 12 12 12
29 29 28 29 29 29 29 28 28 28 28 28 28 28 27 26 26 25 25 24 23 22 22 21 21 20 19 20 19 19 18 18 18 17 16 16 16 16 15 15 14 14 14
31 31 30 30 30 31 31 30 30 30 30 30 30 31 30 29 29 28 27 27 26 25 24 24 23 22 22 21 21 21 21 20 20 19 19 19 18 18 17 17 16 16 15
33 33 33 33 33 33 33 33 33 32 32 32 32 33 33 32 32 30 30 29 29 28 27 27 26 25 24 23 23 23 23 23 23 22 22 21 21 21 20 19 19 18 17
35 35 35 35 35 35 34 35 35 35 35 34 34 34 35 35 35 34 32 32 31 31 30 29 28 27 27 26 26 26 25 25 26 25 25 24 24 23 23 22 21 21 20
36 37 37 37 37 37 37 37 37 37 37 36 36 36 37 37 37 36 35 34 33 33 33 32 31 30 30 30 29 28 28 28 28 28 27 27 26 26 25 25 24 24 23
35 37 38 39 39 39 39 39 39 39 39 38 38 38 38 38 39 39 38 37 36 35 35 35 35 34 33 33 32 31 31 30 30 29 29 29 29 28 28 27 27 26 26
36 38 39 39 40 40 40 40 40 40 40 40 40 40 41 40 41 41 40 39 39 39 38 37 37 37 36 36 36 34 33 33 32 32 31 31 31 31 31 30 29 29 28
37 38 39 40 41 41 41 41 42 41 41 41 41 42 42 42 43 43 42 42 41 41 41 40 39 39 39 39 38 38 37 36 35 34 34 34 34 34 33 33 32 31 31
38 39 40 41 42 42 42 42 43 43 43 43 43 43 43 43 44 44 44 44 44 43 43 43 42 41 41 41 40 40 40 39 38 38 37 36 36 36 36 36 35 34 34
38 39 40 40 41 43 43 43 43 43 43 43 43 44 44 44 45 45 45 46 46 46 45 45 44 43 43 43 43 43 42 41 41 41 40 40 39 39 38 38 38 37 37
39 40 41 41 42 43 43 44 44 43 43 44 44 45 45 45 46 46 46 47 47 47 47 47 47 46 45 45 45 45 45 44 44 44 43 42 42 41 41 41 41 40 40
39 40 41 42 42 43 43 44 45 44 44 45 45 45 46 46 47 47 48 48 49 49 49 49 49 49 48 47 47 48 47 47 47 46 46 46 45 45 44 43 43 43 43
39 39 41 42 43 44 44 45 45 45 45 46 46 46 46 47 47 47 48 48 49 49 50 50 50 50 50 49 50 49 49 49 49 49 49 49 48 48 47 46 46 45 45
39 39 40 41 43 44 44 45 45 46 46 45 46 47 47 48 48 48 48 49 49 50 50 50 51 51 51 51 52 51 52 52 52 51 50 50 50 50 50 50 49 48 48
39 40 41 41 42 44 45 45 45 46 46 46 46 46 47 48 48 48 49 49 50 51 51 52 52 52 52 53 53 53 52 53 53 52 51 51 51 51 51 51 51 51 50
39 40 41 42 42 44 45 45 45 45 46 47 47 47 47 47 48 48 49 50 50 51 52 52 52 52 53 53 54 54 53 53 53 53 53 52 51 52 52 52 52 52 52
Wind_Direction
238 235 234 231 231 230 231 233 235 237 240 239 243 249 253 255 255 251 246 245 243 244 245 243 239 238 242 247 249 243 241 244 250 258 255 241 244 282 307 327 351 8 20
242 239 239 237 236 236 237 239 240 240 243 246 247 251 253 254 255 256 252 249 246 246 249 248 248 246 246 247 248 250 248 247 250 253 253 249 249 259 274 290 308 337 5
244 242 241 241 240 240 241 241 241 244 246 249 251 253 255 255 255 255 256 253 248 247 249 248 248 249 248 250 251 249 254 254 251 251 251 248 245 248 256 269 283 293 321
249 247 245 243 241 242 243 243 243 246 249 253 254 255 257 257 255 255 256 255 251 248 247 246 245 246 246 248 249 249 252 255 252 247 250 248 245 245 249 256 264 280 296
251 249 248 246 243 243 244 245 246 247 250 253 255 256 256 255 256 256 256 255 253 249 247 244 245 246 247 246 246 247 250 251 250 247 249 251 251 247 248 254 258 267 278
251 250 249 247 246 246 246 247 247 248 251 253 255 256 256 255 254 255 255 255 254 251 249 247 247 247 245 245 246 248 248 249 249 249 250 251 253 253 254 255 254 260 267
251 251 251 250 250 248 248 249 250 248 250 252 254 255 255 255 254 253 253 254 254 253 251 248 249 247 246 246 247 249 248 247 248 249 250 250 252 255 258 257 256 260 264
252 252 252 252 251 250 250 250 252 251 250 251 252 253 254 254 253 253 253 253 252 252 252 250 249 249 248 249 249 250 249 247 248 250 251 251 252 255 257 257 258 259 263
253 252 253 253 252 251 251 251 251 252 252 252 252 253 252 254 254 253 253 253 252 252 253 252 251 251 251 250 250 251 252 250 249 251 252 252 253 254 255 256 258 258 260
254 253 253 254 253 252 252 252 252 252 253 253 253 253 253 253 254 254 253 253 252 253 253 253 253 252 251 251 251 251 252 252 252 252 252 253 253 253 254 255 257 258 259
254 253 253 252 252 252 252 252 252 253 254 253 253 254 254 254 253 253 253 254 253 253 253 254 254 253 252 252 252 252 253 253 254 254 253 253 253 254 255 255 256 258 259
254 253 253 252 252 253 253 254 254 255 256 254 254 255 255 255 254 252 252 253 253 253 254 254 254 254 253 253 253 253 253 254 254 254 254 253 254 255 256 257 257 258 258
255 254 253 252 252 253 254 255 255 256 257 256 255 255 255 255 255 254 252 253 254 254 254 254 254 254 254 254 254 254 254 254 254 254 255 255 255 255 255 257 257 258 258
255 254 254 253 253 254 254 255 256 257 257 257 256 256 256 255 255 255 254 254 254 254 254 255 255 255 255 255 255 255 256 256 254 254 254 255 255 255 255 255 256 257 258
256 254 254 253 254 254 254 256 256 257 257 257 256 256 256 255 255 255 254 253 253 254 254 254 255 255 256 256 257 256 256 257 256 255 255 255 255 255 255 255 256 257 258
257 255 255 255 254 254 255 256 256 256 257 256 255 255 256 255 254 254 254 253 253 254 255 254 255 255 255 256 256 257 256 256 256 256 255 255 255 255 255 256 256 257 258
260 257 256 256 256 255 256 256 256 256 257 256 256 256 256 256 255 254 254 254 254 254 255 255 255 256 256 256 257 257 256 256 256 255 255 255 255 255 256 256 256 257 257
261 259 258 258 258 257 257 256 256 257 257 257 257 257 257 257 256 254 254 254 254 255 255 255 255 256 256 257 257 257 256 255 256 256 255 255 255 255 256 256 256 256 257
262 261 259 259 259 258 257 257 256 256 258 258 258 257 257 257 256 255 254 254 254 254 255 256 256 256 256 256 257 257 257 256 255 255 255 255 255 255 255 255 256 256 257
262 261 260 260 260 259 258 257 257 257 257 257 258 258 258 258 257 256 255 254 254 255 255 256 256 256 256 256 256 257 257 257 255 255 256 256 255 255 255 255 255 256 257
264 262 261 260 260 260 259 258 256 256 256 256 257 258 258 259 258 257 256 254 254 255 255 255 256 256 256 256 256 256 256 256 256 255 256 256 256 256 256 256 255 256 256
265 263 261 260 259 260 259 258 256 256 257 256 258 259 259 259 258 257 256 255 254 254 255 255 255 256 257 257 257 257 256 256 257 256 256 257 257 257 257 256 256 256 256
266 263 261 260 259 259 259 258 257 257 257 257 259 259 260 259 258 258 257 255 254 254 255 255 256 256 256 257 257 257 256 257 257 256 257 257 257 257 257 256 256 256 256
268 265 263 261 260 260 259 258 257 257 258 258 259 259 259 259 258 258 257 256 255 255 255 255 255 256 256 257 257 257 257 257 257 257 257 258 258 257 257 257 257 256 256
269 267 264 262 261 260 259 258 258 258 260 258 259 258 259 259 258 257 256 255 256 256 256 255 255 256 257 257 257 257 257 258 258 258 258 258 257 257 257 257 256 256 255
270 269 266 264 263 261 259 258 258 260 260 258 259 259 258 258 258 256 256 255 255 256 256 256 256 256 257 257 257 257 257 258 259 258 258 257 257 256 256 256 256 255 255
Height
5841 5841 5842 5842 5843 5844 5844 5845 5846 5846 5847 5847 5848 5848 5848 5848 5849 5849 5849 5849 5849 5849 5849 5849 5850 5850 5849 5849 5849 5849 5849 5849 5849 5849 5848 5848 5848 5848 5848 5847 5847 5846 5846
5839 5839 5840 5841 5841 5842 5843 5843 5844 5845 5845 5845 5846 5846 5847 5847 5847 5847 5847 5847 5848 5848 5848 5848 5848 5849 5848 5848 5848 5848 5848 5848 5848 5848 5848 5848 5848 5848 5847 5847 5847 5846 5846
5836 5837 5838 5839 5839 5840 5841 5841 5842 5843 5843 5844 5844 5844 5845 5845 5845 5845 5845 5845 5846 5846 5846 5847 5847 5847 5847 5847 5847 5848 5847 5847 5847 5847 5847 5847 5847 5847 5847 5846 5846 5846 5845
5834 5834 5835 5836 5837 5837 5838 5839 5839 5840 5841 5842 5842 5842 5843 5843 5843 5843 5843 5843 5844 5844 5844 5845 5845 5845 5846 5846 5846 5846 5846 5846 5846 5846 5846 5846 5846 5846 5846 5846 5845 5845 5845
5830 5831 5832 5833 5834 5835 5835 5836 5837 5838 5838 5839 5840 5840 5840 5841 5841 5841 5841 5841 5841 5842 5842 5842 5843 5843 5844 5845 5845 5845 5845 5845 5845 5845 5845 5845 5845 5845 5845 5845 5845 5845 5844
5827 5827 5828 5829 5830 5831 5832 5833 5833 5834 5835 5836 5837 5837 5838 5838 5838 5839 5839 5839 5839 5839 5840 5840 5841 5841 5842 5842 5843 5843 5843 5843 5844 5844 5844 5844 5844 5844 5844 5844 5844 5844 5844
5823 5823 5824 5825 5826 5827 5828 5829 5830 5830 5831 5832 5833 5834 5835 5835 5835 5836 5836 5836 5837 5837 5837 5838 5838 5839 5839 5840 5840 5841 5841 5841 5842 5842 5842 5843 5843 5843 5843 5843 5843 5843 5843
5818 5819 5820 5821 5822 5823 5824 5825 5826 5826 5827 5828 5829 5830 5831 5832 5832 5832 5833 5833 5834 5834 5834 5835 5836 5836 5837 5837 5838 5838 5839 5839 5840 5840 5840 5841 5841 5841 5841 5841 5841 5841 5841
5812 5813 5814 5816 5817 5818 5819 5820 5821 5822 5823 5824 5825 5826 5827 5828 5828 5829 5829 5830 5830 5831 5831 5832 5832 5833 5834 5834 5835 5835 5836 5836 5837 5837 5838 5838 5839 5839 5839 5839 5839 5839 5840
5806 5807 5808 5810 5811 5812 5814 5815 5816 5817 5818 5819 5820 5821 5822 5823 5824 5824 5825 5826 5826 5827 5828 5828 5829 5829 5830 5831 5832 5832 5833 5833 5834 5834 5835 5835 5836 5836 5836 5837 5837 5837 5837
5799 5801 5802 5803 5804 5806 5807 5809 5810 5811 5812 5813 5815 5816 5816 5817 5818 5819 5820 5821 5822 5822 5823 5824 5824 5825 5826 5827 5828 5829 5829 5830 5830 5831 5832 5832 5832 5833 5833 5834 5834 5835 5835
5792 5793 5795 5796 5797 5799 5801 5802 5803 5805 5806 5807 5808 5809 5810 5811 5812 5813 5814 5816 5816 5817 5818 5819 5820 5821 5821 5822 5823 5824 5825 5826 5826 5827 5827 5828 5829 5829 5830 5830 5831 5831 5832
5783 5785 5787 5788 5790 5791 5793 5794 5796 5797 5798 5799 5801 5802 5803 5804 5805 5807 5808 5809 5811 5812 5812 5813 5814 5815 5816 5817 5818 5819 5820 5821 5821 5822 5823 5823 5824 5825 5826 5826 5827 5828 5828
5775 5776 5778 5780 5781 5783 5785 5786 5787 5789 5790 5791 5793 5794 5795 5797 5798 5799 5801 5802 5804 5805 5806 5807 5808 5809 5810 5811 5812 5813 5814 5815 5816 5817 5818 5818 5819 5820 5821 5822 5823 5823 5824
5765 5766 5768 5770 5772 5774 5776 5777 5778 5779 5781 5782 5784 5785 5786 5788 5790 5791 5793 5794 5796 5797 5799 5800 5801 5802 5804 5805 5805 5806 5807 5809 5810 5811 5812 5812 5813 5814 5815 5816 5817 5818 5819
5755 5757 5758 5760 5762 5763 5765 5767 5768 5770 5771 5773 5774 5775 5777 5779 5780 5782 5784 5786 5787 5789 5790 5792 5793 5795 5796 5797 5798 5799 5800 5801 5802 5804 5805 5806 5807 5808 5809 5810 5811 5812 5813
5745 5746 5748 5750 5751 5753 5754 5756 5758 5759 5761 5762 5764 5765 5767 5768 5770 5772 5774 5776 5778 5780 5782 5783 5785 5786 5788 5789 5790 5792 5793 5794 5795 5796 5797 5798 5799 5801 5802 5803 5805 5806 5807
5735 5736 5737 5739 5740 5741 5743 5745 5747 5749 5750 5751 5753 5754 5756 5757 5759 5761 5763 5766 5768 5769 5772 5773 5775 5777 5778 5780 5781 5783 5784 5786 5786 5787 5789 5790 5791 5793 5794 5796 5797 5798 5799
5725 5726 5727 5728 5729 5730 5732 5734 5736 5737 5738 5740 5741 5743 5744 5746 5747 5750 5752 5754 5756 5759 5761 5763 5765 5766 5768 5770 5772 5773 5775 5776 5777 5778 5780 5781 5783 5784 5786 5787 5789 5790 5791
5714 5715 5716 5718 5718 5719 5720 5722 5724 5725 5727 5728 5730 5731 5732 5733 5735 5737 5740 5742 5744 5747 5749 5751 5753 5755 5757 5759 5761 5763 5764 5766 5767 5769 5770 5771 5773 5774 5776 5778 5779 5781 5782
5704 5704 5705 5706 5707 5708 5709 5710 5712 5714 5715 5717 5718 5719 5720 5721 5722 5724 5727 5729 5732 5735 5737 5739 5741 5744 5745 5747 5749 5751 5753 5755 5756 5758 5759 5761 5762 5764 5766 5767 5769 5771 5772
5692 5692 5693 5694 5695 5696 5697 5698 5700 5702 5703 5705 5706 5707 5707 5708 5709 5711 5713 5716 5719 5722 5724 5727 5729 5731 5733 5735 5737 5739 5741 5744 5745 5746 5748 5749 5751 5753 5754 5756 5758 5760 5762
5680 5680 5681 5682 5683 5684 5685 5686 5688 5690 5691 5693 5694 5694 5694 5695 5696 5698 5700 5703 5705 5708 5711 5713 5716 5718 5720 5722 5723 5726 5728 5730 5733 5735 5736 5737 5738 5740 5742 5744 5746 5748 5750
5669 5669 5669 5670 5671 5671 5672 5674 5676 5678 5679 5680 5681 5681 5682 5683 5684 5685 5687 5690 5693 5695 5698 5700 5702 5704 5707 5709 5710 5712 5714 5716 5718 5722 5724 5724 5725 5727 5729 5731 5733 5735 5737
5658 5658 5657 5658 5659 5659 5660 5662 5663 5665 5665 5667 5668 5669 5670 5670 5671 5673 5674 5676 5679 5682 5684 5686 5688 5690 5692 5694 5696 5698 5699 5701 5702 5706 5709 5711 5712 5713 5715 5717 5719 5721 5724
5648 5647 5646 5646 5647 5647 5649 5650 5651 5652 5653 5654 5655 5656 5657 5658 5658 5660 5661 5663 5665 5667 5670 5671 5674 5676 5678 5679 5681 5683 5684 5686 5688 5690 5693 5696 5698 5700 5701 5703 5705 5707 5709